Tracking 29892 objects as of 21-Nov-2024
HD Live streaming from Space Station
objects crossing your sky now

COSMOS 1275 DEB

Track COSMOS 1275 DEB now!
10-day predictions


NORAD ID: 42112
Int'l Code: 1981-053PY
Perigee: 746.7 km
Apogee: 777.7 km
Inclination: 82.9 °
Period: 99.9 minutes
Semi major axis: 7133 km
RCS: Unknown
Launch date: June 4, 1981
Source: Commonwealth of Independent States (former USSR) (CIS)
Launch site: PLESETSK MISSILE AND SPACE COMPLEX (PKMTR)

Note: This is SATELLITE DEBRIS
Your satellite tracking list
Your tracking list is empty




NASA's NSSDC Master Catalog

Two Line Element Set (TLE):
1 42112U 81053PY  24316.66177075  .00023325  00000-0  72093-2 0  9990
2 42112  82.8550 292.3501 0021711  72.7892 287.5674 14.41032317558260
Source of the keplerian elements: AFSPC